TimeCST,TemperatureF,Dew PointF,Humidity,Sea Level PressureIn,VisibilityMPH,Wind Direction,Wind SpeedMPH,Gust SpeedMPH,PrecipitationIn,Events,Conditions,WindDirDegrees,DateUTC
12:15 AM,70.9,68.0,91,29.85,7.0,SSE,6.9,-,N/A,,Clear,150,2012-12-09 06:15:00
12:35 AM,70.7,67.6,90,29.84,7.0,SSE,6.9,-,N/A,,Clear,150,2012-12-09 06:35:00
12:55 AM,70.3,67.6,91,29.84,7.0,SSE,8.1,-,N/A,,Clear,150,2012-12-09 06:55:00
1:15 AM,70.0,67.3,91,29.83,7.0,SSE,6.9,-,N/A,,Clear,150,2012-12-09 07:15:00
1:35 AM,69.4,67.1,92,29.83,7.0,SSE,5.8,-,N/A,,Clear,150,2012-12-09 07:35:00
1:55 AM,69.1,66.7,92,29.83,7.0,SE,4.6,-,N/A,,Clear,140,2012-12-09 07:55:00
2:15 AM,68.5,66.4,93,29.82,7.0,SE,4.6,-,N/A,,Clear,140,2012-12-09 08:15:00
2:35 AM,67.6,65.8,94,29.82,5.0,SE,3.5,-,N/A,,Scattered Clouds,130,2012-12-09 08:35:00
2:55 AM,67.6,65.8,94,29.82,7.0,SE,3.5,-,N/A,,Mostly Cloudy,140,2012-12-09 08:55:00
3:15 AM,67.6,65.8,94,29.81,7.0,SE,3.5,-,N/A,,Mostly Cloudy,140,2012-12-09 09:15:00
3:35 AM,67.6,66.2,95,29.81,7.0,SSE,4.6,-,N/A,,Mostly Cloudy,150,2012-12-09 09:35:00
3:55 AM,67.6,66.0,95,29.81,7.0,SSE,5.8,-,N/A,,Mostly Cloudy,150,2012-12-09 09:55:00
4:15 AM,67.6,66.2,95,29.81,5.0,SSE,4.6,-,N/A,,Mostly Cloudy,150,2012-12-09 10:15:00
4:35 AM,67.3,65.8,95,29.81,5.0,SSE,3.5,-,N/A,,Overcast,160,2012-12-09 10:35:00
4:55 AM,67.3,65.8,95,29.81,5.0,SSE,3.5,-,N/A,,Overcast,150,2012-12-09 10:55:00
5:15 AM,67.6,66.2,95,29.81,5.0,SE,4.6,-,N/A,,Overcast,140,2012-12-09 11:15:00
5:35 AM,68.0,66.6,95,29.82,5.0,Calm,Calm,-,N/A,,Overcast,0,2012-12-09 11:35:00
5:55 AM,68.2,66.6,95,29.83,5.0,Calm,Calm,-,N/A,,Overcast,0,2012-12-09 11:55:00
6:15 AM,68.5,67.1,95,29.84,4.0,Calm,Calm,-,N/A,,Overcast,0,2012-12-09 12:15:00
6:35 AM,68.5,67.1,95,29.84,4.0,Calm,Calm,-,N/A,,Overcast,0,2012-12-09 12:35:00
7:15 AM,68.0,66.6,95,29.85,3.0,Calm,Calm,-,N/A,,Overcast,0,2012-12-09 13:15:00
7:35 AM,68.4,67.1,96,29.86,2.5,Calm,Calm,-,N/A,,Overcast,0,2012-12-09 13:35:00
8:15 AM,69.1,67.6,95,29.87,2.5,Calm,Calm,-,N/A,,Overcast,0,2012-12-09 14:15:00
8:35 AM,69.8,68.2,95,29.88,2.5,Calm,Calm,-,N/A,,Overcast,0,2012-12-09 14:35:00
8:55 AM,70.7,68.7,93,29.88,3.0,SE,3.5,-,N/A,,Overcast,140,2012-12-09 14:55:00
9:15 AM,72.3,69.4,91,29.88,4.0,SSE,5.8,-,N/A,,Mostly Cloudy,150,2012-12-09 15:15:00
9:35 AM,73.6,69.8,88,29.89,5.0,SSE,8.1,-,N/A,,Scattered Clouds,150,2012-12-09 15:35:00
9:55 AM,74.5,70.3,87,29.90,5.0,SSE,8.1,-,N/A,,Mostly Cloudy,150,2012-12-09 15:55:00
10:15 AM,75.7,70.7,84,29.90,5.0,SSE,5.8,-,N/A,,Overcast,160,2012-12-09 16:15:00
10:35 AM,76.6,70.9,82,29.90,5.0,South,9.2,-,N/A,,Overcast,170,2012-12-09 16:35:00
10:55 AM,78.1,70.0,76,29.89,7.0,SSE,9.2,-,N/A,,Mostly Cloudy,160,2012-12-09 16:55:00
11:15 AM,78.3,69.6,75,29.89,7.0,South,12.7,-,N/A,,Scattered Clouds,170,2012-12-09 17:15:00
11:35 AM,78.8,69.6,73,29.88,10.0,South,10.4,-,N/A,,Mostly Cloudy,170,2012-12-09 17:35:00
11:55 AM,79.3,69.4,72,29.88,10.0,SSE,9.2,-,N/A,,Overcast,160,2012-12-09 17:55:00
12:15 PM,79.5,69.8,72,29.86,10.0,SSE,9.2,-,N/A,,Mostly Cloudy,150,2012-12-09 18:15:00
12:55 PM,80.6,69.3,68,29.82,10.0,SSE,6.9,-,N/A,,Scattered Clouds,160,2012-12-09 18:55:00
1:15 PM,81.3,68.9,66,29.81,10.0,South,11.5,-,N/A,,Scattered Clouds,180,2012-12-09 19:15:00
1:35 PM,82.0,68.5,63,29.79,10.0,SSE,9.2,-,N/A,,Mostly Cloudy,150,2012-12-09 19:35:00
1:55 PM,83.3,68.0,60,29.79,10.0,South,10.4,-,N/A,,Mostly Cloudy,170,2012-12-09 19:55:00
2:15 PM,83.3,67.5,59,29.78,10.0,SSW,10.4,-,N/A,,Mostly Cloudy,210,2012-12-09 20:15:00
2:35 PM,84.2,67.3,57,29.78,10.0,SSE,10.4,-,N/A,,Mostly Cloudy,150,2012-12-09 20:35:00
2:55 PM,84.4,66.9,56,29.78,10.0,SSE,10.4,-,N/A,,Scattered Clouds,160,2012-12-09 20:55:00
3:15 PM,84.4,66.6,55,29.76,10.0,South,10.4,-,N/A,,Scattered Clouds,190,2012-12-09 21:15:00
3:35 PM,85.3,66.4,53,29.75,10.0,South,13.8,-,N/A,,Clear,170,2012-12-09 21:35:00
3:55 PM,84.2,66.7,56,29.75,10.0,South,8.1,18.4,N/A,,Clear,190,2012-12-09 21:55:00
4:15 PM,84.6,66.6,55,29.75,10.0,South,9.2,-,N/A,,Scattered Clouds,180,2012-12-09 22:15:00
4:35 PM,85.3,66.2,53,29.75,10.0,South,12.7,-,N/A,,Clear,180,2012-12-09 22:35:00
4:55 PM,84.2,66.4,55,29.75,10.0,South,10.4,-,N/A,,Clear,180,2012-12-09 22:55:00
5:15 PM,83.7,67.1,57,29.75,10.0,SSE,6.9,-,N/A,,Mostly Cloudy,150,2012-12-09 23:15:00
5:35 PM,82.6,67.3,60,29.75,10.0,South,4.6,-,N/A,,Scattered Clouds,170,2012-12-09 23:35:00
5:55 PM,81.9,67.3,61,29.75,10.0,South,4.6,-,N/A,,Scattered Clouds,180,2012-12-09 23:55:00
6:15 PM,81.0,68.0,65,29.76,10.0,SSE,5.8,-,N/A,,Scattered Clouds,150,2012-12-10 00:15:00
6:35 PM,81.0,68.4,65,29.77,10.0,SSE,5.8,-,N/A,,Mostly Cloudy,150,2012-12-10 00:35:00
6:55 PM,80.4,69.6,69,29.77,10.0,East,4.6,-,N/A,,Mostly Cloudy,100,2012-12-10 00:55:00
7:15 PM,79.0,70.2,74,29.77,10.0,East,4.6,-,N/A,,Mostly Cloudy,100,2012-12-10 01:15:00
7:35 PM,78.6,70.2,75,29.78,10.0,ESE,8.1,-,N/A,,Scattered Clouds,120,2012-12-10 01:35:00
8:15 PM,77.9,70.2,77,29.79,10.0,SE,3.5,-,N/A,,Scattered Clouds,130,2012-12-10 02:15:00
8:35 PM,77.2,70.0,78,29.80,10.0,SSE,3.5,-,N/A,,Scattered Clouds,150,2012-12-10 02:35:00
8:55 PM,77.2,70.0,78,29.80,10.0,SE,4.6,-,N/A,,Scattered Clouds,140,2012-12-10 02:55:00
9:15 PM,77.0,69.8,78,29.81,10.0,SE,3.5,-,N/A,,Scattered Clouds,140,2012-12-10 03:15:00
9:35 PM,76.3,69.8,80,29.80,10.0,SE,5.8,-,N/A,,Clear,130,2012-12-10 03:35:00
10:15 PM,75.9,69.8,81,29.81,10.0,SE,4.6,-,N/A,,Clear,140,2012-12-10 04:15:00
10:35 PM,75.2,69.6,83,29.81,10.0,SE,3.5,-,N/A,,Clear,140,2012-12-10 04:35:00
10:55 PM,74.8,69.4,83,29.81,10.0,SE,4.6,-,N/A,,Clear,130,2012-12-10 04:55:00
11:15 PM,74.1,69.3,85,29.81,10.0,SSE,4.6,-,N/A,,Clear,150,2012-12-10 05:15:00
11:35 PM,73.4,69.1,86,29.81,10.0,Calm,Calm,-,N/A,,Scattered Clouds,0,2012-12-10 05:35:00